Vorticity
nan nan nan nan nan nan nan nan nan nan nan nan nan nan nan nan nan nan nan nan nan nan nan nan nan nan nan nan nan nan nan nan nan nan nan nan nan nan nan nan nan nan nan nan nan nan nan
nan 5 6 6 6 6 5 5 5 5 6 5 9 9 8 6 8 8 9 9 9 6 7 8 7 7 10 7 6 5 10 11 26 18 5 5 13 13 9 13 6 5 11 9 6 5 nan
nan 6 6 6 6 6 5 5 6 5 5 8 9 8 9 8 7 8 10 11 11 6 6 7 6 9 7 9 6 10 10 8 8 15 12 2 8 18 11 8 10 11 14 11 5 2 nan
nan 6 6 6 6 6 5 5 6 7 6 7 8 8 9 9 7 7 10 10 11 10 6 5 5 10 11 6 6 10 10 6 2 9 9 4 10 16 16 11 13 13 8 8 8 1 nan
nan 7 5 6 7 6 5 5 6 6 7 7 8 8 9 10 7 8 10 14 17 11 7 7 7 8 13 7 5 4 8 11 9 8 7 5 10 18 25 12 5 8 8 9 8 3 nan
nan 7 6 6 6 5 6 6 6 6 7 7 9 8 9 9 7 11 11 15 16 11 7 7 12 9 6 3 7 10 8 9 8 10 13 11 8 15 19 10 7 7 6 10 0 11 nan
nan 7 6 6 6 6 6 6 6 6 7 8 8 8 9 8 9 16 14 9 8 9 5 5 10 11 6 10 9 7 7 10 7 7 11 8 9 19 17 6 9 10 17 13 3 10 nan
nan 8 6 6 6 6 6 6 5 6 7 8 7 8 8 9 17 17 9 5 4 11 12 8 8 9 7 9 13 4 6 15 8 8 11 7 8 11 13 10 14 15 10 8 11 9 nan
nan 8 6 6 6 6 6 6 6 6 8 8 8 9 8 16 17 12 9 10 7 8 8 9 8 11 9 7 10 4 10 12 10 11 7 7 9 17 15 12 7 6 5 8 8 8 nan
nan 8 7 6 6 6 6 6 6 6 8 8 8 8 11 15 12 10 13 10 7 8 8 8 11 11 7 8 8 8 9 7 12 11 5 6 12 16 11 8 6 7 8 8 7 3 nan
nan 8 7 7 6 7 6 6 6 7 8 8 8 11 19 11 7 11 12 9 7 6 9 8 7 8 9 13 10 10 11 9 8 9 11 12 18 14 11 5 8 8 12 10 4 -2 nan
nan 9 7 7 7 6 6 6 6 7 7 8 12 20 15 8 6 12 10 7 7 7 7 8 8 10 9 11 10 12 13 10 8 7 11 8 9 10 11 8 12 13 11 5 7 10 nan
nan 10 7 7 7 6 6 6 6 7 7 11 22 21 6 5 13 10 5 7 7 12 9 9 11 10 8 8 10 10 14 13 11 9 5 5 6 10 15 10 12 10 1 3 9 10 nan
nan 9 7 7 6 6 6 6 6 7 9 16 18 9 5 9 12 7 6 8 10 10 10 11 8 7 9 8 5 8 12 10 8 10 8 9 12 12 8 7 12 12 -3 3 9 12 nan
nan 8 8 7 7 6 6 6 7 7 11 14 7 4 8 8 8 8 10 10 9 10 12 7 5 4 9 11 9 8 8 7 9 10 7 8 8 9 10 10 15 12 4 3 9 11 nan
nan 9 8 7 6 6 6 6 7 8 14 9 5 6 6 7 10 10 9 11 11 9 10 6 6 12 13 12 9 8 8 6 10 8 11 11 9 13 9 7 11 15 15 3 9 10 nan
nan 9 8 7 6 7 6 6 7 10 17 9 4 6 6 9 11 10 9 11 11 10 7 7 9 14 8 8 9 7 6 9 12 8 9 10 11 13 8 10 8 5 2 3 6 9 nan
nan 8 8 7 6 6 6 6 7 11 10 8 6 7 7 10 11 10 12 9 10 12 8 7 7 9 12 9 6 9 7 9 11 8 9 8 10 12 9 6 6 9 15 7 3 9 nan
nan 9 8 7 7 6 7 7 7 13 3 0 8 8 8 11 10 9 10 8 11 10 10 8 8 7 12 10 8 11 10 14 10 4 7 9 7 8 10 11 10 13 10 6 6 10 nan
nan 9 8 7 6 6 6 7 8 13 7 1 9 9 9 8 7 11 11 9 9 8 9 8 11 11 8 9 12 11 11 13 9 5 8 11 8 7 4 10 18 17 11 7 5 2 nan
nan 10 8 7 6 6 7 7 10 16 9 3 9 9 10 14 13 8 8 12 9 8 6 12 9 10 11 10 9 9 10 10 9 10 7 9 11 10 8 8 10 9 13 14 6 0 nan
nan 10 8 7 6 7 7 7 12 14 1 5 12 9 6 11 14 10 9 12 9 5 11 12 8 12 13 6 14 15 8 8 11 8 6 8 10 9 12 10 5 7 9 11 10 10 nan
nan 9 7 6 7 7 7 8 14 11 -3 3 9 9 10 13 10 9 10 10 10 6 9 10 13 9 9 5 7 8 11 12 13 16 11 7 9 7 9 10 12 20 20 15 12 11 nan
nan 9 8 6 7 7 7 8 17 10 -2 5 12 10 12 12 12 12 11 11 7 7 8 8 12 10 4 9 11 9 8 10 10 8 12 13 6 6 9 11 6 7 17 14 19 17 nan
nan 9 7 7 7 7 7 9 14 15 8 6 11 9 11 11 13 15 10 8 8 8 8 7 8 9 11 14 12 10 7 10 9 8 11 10 10 7 12 7 5 15 13 10 11 14 nan
nan 9 7 7 7 7 7 7 9 13 10 5 8 10 14 13 8 11 11 8 12 9 8 8 5 9 13 11 10 10 6 11 12 8 11 10 10 9 7 9 11 17 15 10 9 18 nan
nan 9 8 8 8 7 7 7 6 5 7 7 9 11 12 11 12 9 11 10 10 10 10 11 9 12 11 11 9 11 8 9 11 9 11 10 12 12 5 6 7 15 13 6 8 13 nan
nan 9 9 8 8 7 6 7 9 10 4 4 8 10 14 13 11 10 13 13 11 12 9 12 13 10 12 11 10 11 12 9 8 12 12 9 9 12 10 10 17 12 4 3 7 7 nan
nan nan nan nan nan nan nan nan nan nan nan nan nan nan nan nan nan nan nan nan nan nan nan nan nan nan nan nan nan nan nan nan nan nan nan nan nan nan nan nan nan nan nan nan nan nan nan
CAPE
5 7 6 4 5 3 4 7 5 17 15 21 33 40 37 12 19 37 38 29 19 1 0 0 0 0 8 12 8 0 0 45 196 124 20 97 133 113 58 22 54 123 132 177 148 259 114
8 6 6 6 3 3 3 6 9 9 13 19 40 38 31 17 15 29 24 43 0 0 2 0 0 2 17 51 0 2 0 55 142 75 57 5 53 61 29 35 45 46 143 168 206 109 138
11 5 7 5 4 3 2 4 6 12 13 23 38 43 37 24 8 20 31 45 23 0 0 1 13 3 11 14 19 8 2 31 28 92 52 27 16 78 7 46 75 117 100 250 162 185 143
13 7 5 5 5 2 1 2 4 9 13 22 36 43 36 38 13 9 36 32 36 0 0 1 9 10 15 4 73 25 28 37 1 0 5 7 44 18 83 34 106 107 133 164 122 163 116
13 9 3 5 3 2 2 1 3 9 12 21 31 38 36 31 20 20 23 31 23 0 0 0 31 17 21 31 45 11 96 32 17 5 24 39 49 25 91 87 103 85 76 59 92 171 120
12 13 4 4 1 2 2 2 2 5 11 13 27 27 29 20 20 19 21 27 14 0 4 0 0 15 2 58 14 2 71 14 38 1 40 44 38 7 76 107 60 32 58 74 69 93 68
9 10 5 3 1 1 1 2 1 4 8 15 22 23 27 20 22 26 24 20 13 9 5 1 2 0 0 3 5 88 33 8 15 0 33 11 8 7 25 30 0 4 40 33 46 41 34
8 10 3 2 0 1 2 1 1 3 7 16 15 21 18 20 21 15 17 8 0 0 4 0 0 0 0 0 1 73 10 17 23 17 40 24 21 4 27 50 62 79 67 11 14 9 13
6 8 3 1 0 1 2 1 1 2 9 17 14 17 16 16 9 7 11 0 0 0 6 2 1 16 12 1 26 7 14 6 32 13 8 52 13 5 25 27 78 31 18 36 14 9 24
5 7 4 2 0 2 2 1 1 2 8 12 13 14 16 9 1 4 5 0 0 0 32 9 8 7 14 3 25 1 0 14 30 9 6 33 3 22 38 27 20 41 29 21 24 33 8
3 7 3 1 0 1 2 0 0 1 6 11 12 11 15 4 7 1 5 0 0 0 19 5 11 5 8 16 15 1 0 25 23 5 10 31 8 6 31 24 7 33 12 4 30 60 21
4 7 3 0 1 0 1 0 0 1 3 5 9 11 8 1 18 7 1 0 6 4 2 7 13 8 14 17 11 5 23 2 29 21 47 23 12 2 29 48 15 3 11 8 13 17 23
4 9 3 0 0 0 0 0 0 0 2 2 3 1 4 0 4 6 6 4 8 13 0 3 0 4 4 4 9 8 26 64 36 31 36 20 16 3 14 32 37 15 10 29 25 27 11
4 8 2 0 0 0 0 0 0 0 2 0 2 0 0 2 4 1 13 1 3 9 32 9 0 0 9 7 0 5 1 31 18 10 33 50 14 22 28 35 35 19 5 11 2 4 0
3 9 2 0 0 0 0 0 0 0 0 0 0 7 9 0 0 2 8 11 5 2 7 1 4 6 14 1 6 7 3 31 20 45 33 20 7 0 9 31 35 50 69 0 1 0 12
4 5 2 0 0 0 0 0 0 0 0 0 8 11 14 0 0 1 10 0 1 0 0 10 14 12 5 13 1 5 3 0 0 0 4 12 28 8 17 15 5 15 13 5 13 2 0
7 5 1 0 0 0 0 0 0 0 0 0 9 7 4 0 6 8 8 8 0 0 0 0 13 0 2 6 3 0 7 0 1 2 0 4 29 8 28 17 49 13 3 14 10 0 4
7 5 1 0 0 0 0 0 0 0 0 0 13 5 0 0 13 1 9 1 0 0 0 0 0 9 19 16 28 23 2 1 0 1 0 0 8 17 17 11 1 15 28 28 25 3 0
8 5 2 0 0 0 0 0 0 0 0 0 7 4 0 2 2 10 0 2 4 1 0 0 0 0 0 2 15 3 4 0 0 0 0 0 9 12 22 13 1 1 0 0 10 0 33
9 6 2 0 0 0 0 0 0 0 0 0 1 3 7 1 6 2 8 9 2 0 0 0 0 0 0 0 0 4 1 0 3 1 0 0 6 12 25 9 0 0 0 3 4 33 2
11 7 2 1 0 0 0 0 0 0 0 0 0 0 0 3 2 1 0 7 7 0 0 0 0 0 2 1 0 1 1 0 0 0 0 0 17 0 0 0 0 0 0 0 6 0 3
12 9 3 2 0 0 0 0 0 0 0 0 0 0 0 0 0 0 0 11 13 0 0 0 2 0 0 3 0 4 2 10 12 0 2 0 17 0 0 0 0 0 0 0 0 0 5
14 8 5 4 0 0 0 0 0 0 0 0 0 0 0 0 0 1 1 5 6 1 1 0 0 0 0 0 0 0 0 0 0 6 5 6 10 0 9 0 0 0 0 0 0 0 0
16 10 9 5 0 0 0 0 0 0 0 0 0 0 0 0 0 0 0 0 0 0 5 0 0 1 0 0 0 0 0 0 0 0 0 0 0 3 7 0 0 0 0 0 0 0 0
20 13 10 5 0 0 0 0 0 0 0 0 0 0 0 0 0 0 0 0 0 0 0 0 1 0 0 0 1 0 0 0 0 0 0 0 1 6 3 4 0 0 0 0 0 0 0
19 12 10 3 0 0 0 0 0 0 0 0 0 0 0 0 0 0 0 0 0 2 0 0 0 0 0 7 13 12 13 3 2 0 0 0 0 6 3 4 1 0 0 0 0 0 0
18 21 9 5 0 1 0 0 0 0 0 0 0 0 0 0 0 0 0 0 0 0 2 0 0 1 1 35 30 18 12 0 1 3 1 3 6 10 9 5 0 0 0 0 0 0 0
19 19 15 5 3 2 0 0 0 0 0 0 0 0 0 0 0 0 0 0 0 0 0 0 0 7 19 32 22 22 16 6 0 0 0 1 10 15 15 11 1 0 0 0 0 0 0
21 20 15 14 8 2 0 0 0 0 0 0 0 0 0 0 0 0 0 0 0 0 0 0 0 3 5 2 2 3 12 2 0 5 0 0 0 4 3 10 0 0 0 0 0 0 0